| time (UTC) | temp C | wind direction | speed KPH | gust KPH | rain 1hr cm | rain 24hr cm | rain mn cm | humidity % | barometer mb |
| 20260503233401 | 13 | 204 | 4.8 | 24.1 | 0.00 | 0.00 | 0.00 | 43 | 1006.6 |
| 20260503232901 | 13 | 220 | 6.4 | 19.3 | 0.00 | 0.00 | 0.00 | 45 | 1006.6 |
| 20260503232632 | 13 | 235 | 6.4 | 24.1 | 0.00 | 0.00 | 0.00 | 42 | 1006.6 |
| 20260503231901 | 13 | 208 | 4.8 | 24.1 | 0.00 | 0.00 | 0.00 | 42 | 1006.6 |
| 20260503231402 | 14 | 180 | 6.4 | 24.1 | 0.00 | 0.00 | 0.00 | 43 | 1006.7 |
| 20260503230901 | 14 | 194 | 6.4 | 24.1 | 0.00 | 0.00 | 0.00 | 42 | 1006.6 |
| 20260503230409 | 14 | 157 | 6.4 | 17.7 | 0.00 | 0.00 | 0.00 | 44 | 1006.6 |
| 20260503225900 | 14 | 228 | 6.4 | 17.7 | 0.00 | 0.00 | 0.00 | 42 | 1006.6 |
| 20260503225403 | 14 | 154 | 4.8 | 14.5 | 0.00 | 0.00 | 0.00 | 42 | 1006.7 |
| 20260503224901 | 14 | 163 | 6.4 | 17.7 | 0.00 | 0.00 | 0.00 | 42 | 1006.7 |
| 20260503224400 | 14 | 155 | 6.4 | 17.7 | 0.00 | 0.00 | 0.00 | 43 | 1006.7 |
| 20260503223901 | 14 | 202 | 6.4 | 24.1 | 0.00 | 0.00 | 0.00 | 43 | 1006.7 |
| 20260503223400 | 14 | 246 | 6.4 | 24.1 | 0.00 | 0.00 | 0.00 | 44 | 1006.7 |
| 20260503222901 | 14 | 165 | 6.4 | 16.1 | 0.00 | 0.00 | 0.00 | 44 | 1006.8 |
| 20260503222401 | 14 | 131 | 6.4 | 27.4 | 0.00 | 0.00 | 0.00 | 43 | 1006.9 |
| 20260503221901 | 14 | 229 | 6.4 | 27.4 | 0.00 | 0.00 | 0.00 | 43 | 1006.9 |
| 20260503221402 | 14 | 211 | 6.4 | 17.7 | 0.00 | 0.00 | 0.00 | 43 | 1006.9 |
| 20260503220856 | 14 | 291 | 6.4 | 16.1 | 0.00 | 0.00 | 0.00 | 43 | 1006.9 |
| 20260503220350 | 14 | 142 | 6.4 | 22.5 | 0.00 | 0.00 | 0.00 | 43 | 1007.0 |
| 20260503215844 | 14 | 190 | 6.4 | 22.5 | 0.00 | 0.00 | 0.00 | 42 | 1007.0 |
| 20260503215345 | 14 | 324 | 6.4 | 17.7 | 0.00 | 0.00 | 0.00 | 43 | 1007.0 |
| 20260503215117 | 14 | 215 | 4.8 | 16.1 | 0.00 | 0.00 | 0.00 | 42 | 1006.9 |
| 20260503214343 | 14 | 155 | 4.8 | 16.1 | 0.00 | 0.00 | 0.00 | 42 | 1006.8 |
| 20260503214116 | 14 | 217 | 4.8 | 20.9 | 0.00 | 0.00 | 0.00 | 44 | 1006.8 |
| 20260503213343 | 15 | 165 | 4.8 | 22.5 | 0.00 | 0.00 | 0.00 | 41 | 1006.9 |
| 20260503213117 | 15 | 215 | 6.4 | 22.5 | 0.00 | 0.00 | 0.00 | 43 | 1006.9 |
| 20260503212340 | 15 | 150 | 8.0 | 20.9 | 0.00 | 0.00 | 0.00 | 40 | 1006.9 |
| 20260503211841 | 15 | 204 | 8.0 | 17.7 | 0.00 | 0.00 | 0.00 | 40 | 1006.9 |
| 20260503211340 | 15 | 309 | 6.4 | 17.7 | 0.00 | 0.00 | 0.00 | 39 | 1006.8 |
| 20260503210840 | 15 | 275 | 4.8 | 17.7 | 0.00 | 0.00 | 0.00 | 42 | 1006.8 |
| 20260503210340 | 15 | 165 | 4.8 | 14.5 | 0.00 | 0.00 | 0.00 | 40 | 1006.8 |
| 20260503205840 | 15 | 109 | 4.8 | 20.9 | 0.00 | 0.00 | 0.00 | 41 | 1006.8 |
| 20260503205341 | 15 | 155 | 4.8 | 20.9 | 0.00 | 0.00 | 0.00 | 39 | 1006.8 |
| 20260503205114 | 15 | 292 | 4.8 | 16.1 | 0.00 | 0.00 | 0.00 | 40 | 1006.8 |
| 20260503204610 | 15 | 120 | 6.4 | 20.9 | 0.00 | 0.00 | 0.00 | 41 | 1006.9 |
| 20260503204108 | 15 | 228 | 6.4 | 22.5 | 0.00 | 0.00 | 0.00 | 41 | 1006.9 |
| 20260503203337 | 15 | 217 | 6.4 | 22.5 | 0.00 | 0.00 | 0.00 | 40 | 1007.0 |
| 20260503202837 | 15 | 258 | 6.4 | 19.3 | 0.00 | 0.00 | 0.00 | 41 | 1007.0 |
| 20260503202338 | 15 | 194 | 6.4 | 17.7 | 0.00 | 0.00 | 0.00 | 41 | 1007.0 |
| 20260503201836 | 15 | 53 | 6.4 | 20.9 | 0.00 | 0.00 | 0.00 | 40 | 1007.0 |
| 20260503201337 | 15 | 327 | 6.4 | 20.9 | 0.00 | 0.00 | 0.00 | 41 | 1007.1 |
| 20260503200838 | 15 | 355 | 6.4 | 22.5 | 0.00 | 0.00 | 0.00 | 43 | 1007.2 |
| 20260503200338 | 15 | 155 | 6.4 | 22.5 | 0.00 | 0.00 | 0.00 | 44 | 1007.2 |
| 20260503195833 | 14 | 211 | 8.0 | 22.5 | 0.00 | 0.00 | 0.00 | 43 | 1007.3 |
| 20260503195333 | 14 | 171 | 8.0 | 22.5 | 0.00 | 0.00 | 0.00 | 43 | 1007.4 |
| 20260503194833 | 14 | 229 | 8.0 | 29.0 | 0.00 | 0.00 | 0.00 | 42 | 1007.5 |
| 20260503194333 | 14 | 242 | 6.4 | 29.0 | 0.00 | 0.00 | 0.00 | 44 | 1007.7 |
| 20260503193832 | 14 | 56 | 6.4 | 17.7 | 0.00 | 0.00 | 0.00 | 42 | 1007.8 |
| 20260503193335 | 14 | 192 | 4.8 | 16.1 | 0.00 | 0.00 | 0.00 | 42 | 1007.7 |
| 20260503192833 | 14 | 236 | 6.4 | 17.7 | 0.00 | 0.00 | 0.00 | 41 | 1007.7 |
| 20260503192604 | 14 | 321 | 6.4 | 25.7 | 0.00 | 0.00 | 0.00 | 42 | 1007.9 |
| 20260503192105 | 15 | 223 | 8.0 | 25.7 | 0.00 | 0.00 | 0.00 | 40 | 1008.0 |
| 20260503191328 | 15 | 175 | 6.4 | 17.7 | 0.00 | 0.00 | 0.00 | 41 | 1008.0 |
| 20260503191100 | 15 | 198 | 6.4 | 22.5 | 0.00 | 0.00 | 0.00 | 43 | 1008.0 |
| 20260503190328 | 15 | 160 | 6.4 | 22.5 | 0.00 | 0.00 | 0.00 | 43 | 1008.1 |
| 20260503185828 | 15 | 133 | 6.4 | 19.3 | 0.00 | 0.00 | 0.00 | 40 | 1008.2 |
| 20260503185559 | 15 | 173 | 6.4 | 20.9 | 0.00 | 0.00 | 0.00 | 41 | 1008.2 |
| 20260503184829 | 15 | 184 | 8.0 | 20.9 | 0.00 | 0.00 | 0.00 | 39 | 1008.3 |
| 20260503184328 | 15 | 233 | 6.4 | 17.7 | 0.00 | 0.00 | 0.00 | 41 | 1008.3 |
| 20260503183828 | 15 | 195 | 8.0 | 20.9 | 0.00 | 0.00 | 0.00 | 45 | 1008.3 |
| 20260503183330 | 15 | 314 | 8.0 | 24.1 | 0.00 | 0.00 | 0.00 | 40 | 1008.4 |
| 20260503182826 | 15 | 217 | 8.0 | 24.1 | 0.00 | 0.00 | 0.00 | 41 | 1008.5 |
| 20260503182327 | 15 | 160 | 8.0 | 25.7 | 0.00 | 0.00 | 0.00 | 41 | 1008.4 |
| 20260503181824 | 15 | 208 | 8.0 | 25.7 | 0.00 | 0.00 | 0.00 | 41 | 1008.4 |
| 20260503181325 | 15 | 178 | 8.0 | 24.1 | 0.00 | 0.00 | 0.00 | 41 | 1008.5 |
| 20260503180823 | 15 | 261 | 6.4 | 24.1 | 0.00 | 0.00 | 0.00 | 40 | 1008.7 |
| 20260503180320 | 14 | 138 | 6.4 | 20.9 | 0.00 | 0.00 | 0.00 | 43 | 1008.5 |
| 20260503175822 | 14 | 20 | 6.4 | 20.9 | 0.00 | 0.00 | 0.00 | 42 | 1008.8 |
| 20260503175320 | 15 | 178 | 6.4 | 17.7 | 0.00 | 0.00 | 0.00 | 41 | 1008.9 |
| 20260503174820 | 15 | 125 | 6.4 | 19.3 | 0.00 | 0.00 | 0.00 | 44 | 1008.9 |
| 20260503174321 | 15 | 188 | 6.4 | 19.3 | 0.00 | 0.00 | 0.00 | 43 | 1008.9 |
| 20260503173821 | 15 | 239 | 6.4 | 16.1 | 0.00 | 0.00 | 0.00 | 44 | 1009.0 |
| 20260503173320 | 15 | 332 | 6.4 | 17.7 | 0.00 | 0.00 | 0.00 | 44 | 1009.0 |
| 20260503172820 | 15 | 207 | 6.4 | 17.7 | 0.00 | 0.00 | 0.00 | 46 | 1009.2 |
| 20260503172321 | 15 | 207 | 6.4 | 17.7 | 0.00 | 0.00 | 0.00 | 46 | 1009.1 |
| 20260503171814 | 14 | 225 | 8.0 | 29.0 | 0.00 | 0.00 | 0.00 | 45 | 1009.1 |
| 20260503171309 | 14 | 242 | 8.0 | 29.0 | 0.00 | 0.00 | 0.00 | 43 | 1009.2 |
| 20260503170804 | 14 | 191 | 6.4 | 17.7 | 0.00 | 0.00 | 0.00 | 47 | 1009.4 |
| 20260503170256 | 14 | 198 | 6.4 | 17.7 | 0.00 | 0.00 | 0.00 | 45 | 1009.4 |
| 20260503150935 | 11 | 165 | 4.8 | 17.7 | 0.00 | 0.00 | 0.00 | 47 | 1010.3 |
| 20260503150158 | 11 | 274 | 6.4 | 17.7 | 0.00 | 0.00 | 0.00 | 47 | 1010.4 |
| 20260503130946 | 7 | 186 | 4.8 | 11.3 | 0.00 | 0.00 | 0.00 | 51 | 1010.9 |
| 20260503130448 | 7 | 234 | 3.2 | 11.3 | 0.00 | 0.03 | 0.00 | 53 | 1010.9 |
| 20260503110421 | 0 | 161 | 0.0 | 0.0 | 0.00 | 0.03 | 0.00 | 87 | 1010.5 |
| 20260503081350 | 0 | 230 | 0.0 | 0.0 | 0.00 | 0.05 | 0.00 | 89 | 1010.5 |
| 20260503080851 | 0 | 230 | 0.0 | 0.0 | 0.00 | 0.05 | 0.00 | 89 | 1010.4 |
| 20260503080351 | 0 | 230 | 0.0 | 0.0 | 0.00 | 0.05 | 0.00 | 89 | 1010.4 |
| 20260503072845 | 0 | 230 | 0.0 | 0.0 | 0.00 | 0.08 | 0.00 | 89 | 1010.5 |
| 20260503072616 | 0 | 230 | 0.0 | 0.0 | 0.00 | 0.08 | 0.00 | 89 | 1010.4 |
| 20260503071846 | 0 | 230 | 0.0 | 0.0 | 0.00 | 0.08 | 0.00 | 88 | 1010.4 |
| 20260503071345 | 1 | 230 | 0.0 | 0.0 | 0.00 | 0.10 | 0.00 | 88 | 1010.4 |
| 20260503071118 | 1 | 230 | 0.0 | 0.0 | 0.00 | 0.10 | 0.00 | 88 | 1010.4 |
| 20260503070345 | 1 | 230 | 0.0 | 0.0 | 0.00 | 0.10 | 0.00 | 88 | 1010.4 |
| 20260503054804 | 1 | 230 | 0.0 | 0.0 | 0.00 | 0.10 | 0.00 | 84 | 1010.7 |
| 20260503054301 | 1 | 230 | 0.0 | 0.0 | 0.00 | 0.13 | 0.00 | 84 | 1010.8 |
| 20260503054256 | 1 | 230 | 0.0 | 0.0 | 0.00 | 0.13 | 0.00 | 84 | 1010.7 |
| 20260503053246 | 1 | 230 | 0.0 | 0.0 | 0.00 | 0.13 | 0.00 | 83 | 1010.7 |
| 20260503053012 | 1 | 230 | 0.0 | 0.0 | 0.00 | 0.13 | 0.00 | 83 | 1010.7 |
| 20260503052235 | 1 | 230 | 0.0 | 0.0 | 0.00 | 0.13 | 0.00 | 82 | 1010.8 |
| 20260503051728 | 1 | 230 | 0.0 | 0.0 | 0.00 | 0.13 | 0.00 | 82 | 1010.9 |
| 20260503051222 | 1 | 230 | 0.0 | 0.0 | 0.00 | 0.13 | 0.00 | 81 | 1010.8 |
| 20260503050716 | 1 | 230 | 0.0 | 0.0 | 0.00 | 0.13 | 0.00 | 80 | 1010.9 |
| 20260503050436 | 2 | 230 | 0.0 | 0.0 | 0.00 | 0.13 | 0.00 | 79 | 1010.9 |
| 20260503050209 | 1 | 230 | 0.0 | 0.0 | 0.00 | 0.13 | 0.00 | 80 | 1010.9 |
| 20260503045158 | 2 | 230 | 0.0 | 0.0 | 0.00 | 0.13 | 0.00 | 78 | 1011.0 |
| 20260503044652 | 2 | 230 | 0.0 | 0.0 | 0.00 | 0.13 | 0.00 | 78 | 1010.9 |
| 20260503044146 | 2 | 230 | 0.0 | 0.0 | 0.00 | 0.13 | 0.00 | 77 | 1011.0 |
| 20260503044141 | 2 | 230 | 0.0 | 0.0 | 0.00 | 0.15 | 0.00 | 77 | 1011.0 |
| 20260503043134 | 2 | 230 | 0.0 | 0.0 | 0.00 | 0.15 | 0.00 | 76 | 1011.0 |
| 20260503042627 | 2 | 230 | 0.0 | 0.0 | 0.00 | 0.15 | 0.00 | 75 | 1010.9 |
| 20260503042122 | 3 | 230 | 0.0 | 0.0 | 0.00 | 0.15 | 0.00 | 75 | 1011.0 |
| 20260503041616 | 3 | 230 | 0.0 | 0.0 | 0.00 | 0.15 | 0.00 | 74 | 1011.0 |
| 20260503041110 | 3 | 230 | 0.0 | 0.0 | 0.00 | 0.15 | 0.00 | 74 | 1011.0 |
| 20260503040604 | 3 | 230 | 0.0 | 1.6 | 0.00 | 0.15 | 0.00 | 73 | 1011.1 |
| 20260503040058 | 3 | 229 | 0.0 | 1.6 | 0.00 | 0.18 | 0.00 | 73 | 1011.1 |
| 20260503035552 | 3 | 207 | 0.0 | 0.0 | 0.00 | 0.18 | 0.18 | 73 | 1011.1 |
| 20260503035045 | 3 | 207 | 0.0 | 0.0 | 0.00 | 0.18 | 0.18 | 73 | 1011.1 |
| 20260503034810 | 3 | 207 | 0.0 | 0.0 | 0.00 | 0.18 | 0.18 | 73 | 1011.1 |
| 20260503034305 | 4 | 207 | 0.0 | 0.0 | 0.00 | 0.18 | 0.18 | 73 | 1011.2 |
| 20260503033528 | 4 | 207 | 0.0 | 0.0 | 0.00 | 0.18 | 0.18 | 73 | 1011.2 |
| 20260503033022 | 4 | 207 | 0.0 | 0.0 | 0.00 | 0.18 | 0.18 | 73 | 1011.2 |
| 20260503032516 | 4 | 209 | 0.0 | 1.6 | 0.00 | 0.18 | 0.18 | 73 | 1011.2 |
| 20260503032010 | 4 | 209 | 0.0 | 1.6 | 0.00 | 0.18 | 0.18 | 74 | 1011.2 |
| 20260503031736 | 4 | 192 | 0.0 | 0.0 | 0.00 | 0.18 | 0.18 | 74 | 1011.2 |
| 20260503030957 | 4 | 192 | 0.0 | 0.0 | 0.00 | 0.18 | 0.18 | 74 | 1011.2 |
| 20260503030452 | 4 | 192 | 0.0 | 0.0 | 0.00 | 0.18 | 0.18 | 74 | 1011.2 |
| 20260503025946 | 4 | 192 | 0.0 | 0.0 | 0.00 | 0.18 | 0.18 | 74 | 1011.2 |
| 20260503025440 | 4 | 192 | 0.0 | 0.0 | 0.00 | 0.18 | 0.18 | 74 | 1011.2 |
| 20260503025205 | 4 | 192 | 0.0 | 0.0 | 0.00 | 0.18 | 0.18 | 74 | 1011.3 |
| 20260503024429 | 4 | 192 | 0.0 | 0.0 | 0.00 | 0.18 | 0.18 | 74 | 1011.4 |
| 20260503023921 | 4 | 192 | 0.0 | 0.0 | 0.00 | 0.18 | 0.18 | 74 | 1011.5 |
| 20260503023416 | 4 | 192 | 0.0 | 0.0 | 0.00 | 0.18 | 0.18 | 75 | 1011.5 |
| 20260503022910 | 4 | 192 | 0.0 | 0.0 | 0.00 | 0.18 | 0.18 | 75 | 1011.5 |
| 20260503022636 | 4 | 192 | 0.0 | 0.0 | 0.00 | 0.18 | 0.18 | 75 | 1011.5 |
| 20260503021858 | 4 | 192 | 0.0 | 0.0 | 0.00 | 0.18 | 0.18 | 74 | 1011.5 |
| 20260503021352 | 4 | 192 | 0.0 | 0.0 | 0.00 | 0.18 | 0.18 | 74 | 1011.5 |
| 20260503020847 | 4 | 192 | 0.0 | 0.0 | 0.00 | 0.18 | 0.18 | 73 | 1011.5 |
| 20260503020340 | 4 | 192 | 0.0 | 0.0 | 0.00 | 0.18 | 0.18 | 73 | 1011.5 |
| 20260503015836 | 4 | 192 | 0.0 | 0.0 | 0.00 | 0.18 | 0.18 | 72 | 1011.5 |
| 20260503015830 | 4 | 192 | 0.0 | 0.0 | 0.00 | 0.18 | 0.18 | 72 | 1011.5 |
| 20260503014822 | 4 | 192 | 0.0 | 0.0 | 0.00 | 0.18 | 0.18 | 72 | 1011.5 |
| 20260503014316 | 4 | 192 | 0.0 | 0.0 | 0.00 | 0.18 | 0.18 | 72 | 1011.5 |
| 20260503013810 | 4 | 192 | 0.0 | 0.0 | 0.00 | 0.18 | 0.18 | 71 | 1011.5 |
| 20260503013304 | 4 | 192 | 0.0 | 0.0 | 0.00 | 0.18 | 0.18 | 70 | 1011.5 |
| 20260503012758 | 4 | 192 | 0.0 | 0.0 | 0.00 | 0.18 | 0.18 | 71 | 1011.5 |
| 20260503012251 | 4 | 192 | 0.0 | 0.0 | 0.00 | 0.18 | 0.18 | 71 | 1011.5 |
| 20260503012016 | 4 | 192 | 0.0 | 0.0 | 0.00 | 0.18 | 0.18 | 70 | 1011.5 |
| 20260503011748 | 4 | 192 | 0.0 | 0.0 | 0.00 | 0.18 | 0.18 | 69 | 1011.5 |
| 20260503010743 | 4 | 192 | 0.0 | 0.0 | 0.00 | 0.18 | 0.18 | 69 | 1011.4 |
| 20260503010242 | 4 | 192 | 0.0 | 0.0 | 0.00 | 0.18 | 0.18 | 68 | 1011.5 |
| 20260503005738 | 5 | 192 | 0.0 | 0.0 | 0.00 | 0.18 | 0.18 | 68 | 1011.4 |
| 20260503005237 | 5 | 192 | 0.0 | 3.2 | 0.00 | 0.18 | 0.18 | 67 | 1011.4 |
| 20260503004739 | 5 | 192 | 0.0 | 3.2 | 0.00 | 0.18 | 0.18 | 67 | 1011.4 |
| 20260503004510 | 5 | 197 | 0.0 | 0.0 | 0.00 | 0.18 | 0.18 | 67 | 1011.4 |
| 20260503004400 | 5 | 197 | 0.0 | 0.0 | 0.00 | 0.18 | 0.18 | 67 | 1011.3 |
| 20260503003233 | 5 | 197 | 0.0 | 1.6 | 0.00 | 0.18 | 0.18 | 68 | 1011.3 |
| 20260503003005 | 5 | 197 | 0.0 | 1.6 | 0.00 | 0.18 | 0.18 | 66 | 1011.4 |
| 20260503002507 | 5 | 282 | 0.0 | 1.6 | 0.00 | 0.18 | 0.18 | 67 | 1011.4 |
| 20260503001731 | 5 | 217 | 0.0 | 1.6 | 0.00 | 0.18 | 0.18 | 66 | 1011.4 |
| 20260503001238 | 5 | 239 | 0.0 | 4.8 | 0.00 | 0.18 | 0.18 | 65 | 1011.3 |
| 20260503001230 | 5 | 210 | 0.0 | 3.2 | 0.00 | 0.18 | 0.18 | 65 | 1011.3 |
| 20260503001124 | 5 | 221 | 0.0 | 4.8 | 0.00 | 0.18 | 0.18 | 64 | 1011.3 |
| 20260502235730 | 5 | 267 | 0.0 | 3.2 | 0.00 | 0.18 | 0.18 | 65 | 1011.3 |
| 20260502235228 | 5 | 265 | 0.0 | 3.2 | 0.00 | 0.18 | 0.18 | 64 | 1011.3 |
| 20260502234731 | 5 | 355 | 0.0 | 3.2 | 0.00 | 0.18 | 0.18 | 64 | 1011.3 |
| 20260502234231 | 5 | 309 | 1.6 | 4.8 | 0.00 | 0.18 | 0.18 | 64 | 1011.3 |